Regional Weather Roundup
Issued by NWS

Home | Current Version | Previous Version | Graphics & Text | Print | Product List | Glossary On
Versions: 1 2 3 4 5 6 7 8 9 10 11 12 13 14 15 16 17 18 19 20 21 22 23 24 25 26 27 28 29 30 31 32 33 34 35 36 37 38 39 40 41 42 43 44 45 46 47 48 49 50
000
ASUS43 KDTX 010610
RWRMI
MICHIGAN HOURLY REGIONAL WEATHER ROUNDUP
NATIONAL WEATHER SERVICE DETROIT/PONTIAC MI
100 AM EST SUN FEB 01 2015

NOTE: "FAIR" INDICATES FEW OR NO CLOUDS BELOW 12,000 FEET WITH NO
SIGNIFICANT WEATHER AND/OR OBSTRUCTION TO VISIBILITY.

MIZ047>049-052>055-059>063-066>070-074>076-081>083-010700-
SOUTHEAST LOWER MICHIGAN

CITY           SKY/WX    TMP DP  RH WIND       PRES   REMARKS
ADRIAN         LGT SNOW  29  27  92 CALM      30.17S FOG
6HR MIN TEMP:  28; 6HR MAX TEMP:  30; 6HR PCP: TRACE;

ALMA           CLOUDY    27  21  78 N7        30.20R WCI  19
ANN ARBOR      CLOUDY    32  23  69 NE7       30.15F WCI  26
BAD AXE        CLOUDY    22  18  85 N14G22    30.21S WCI  10
CARO           CLOUDY    26  19  77 N12       30.19S WCI  15
DETROIT CITY   CLOUDY    33  24  69 N5        30.17S WCI  29
6HR MIN TEMP:  33; 6HR MAX TEMP:  35;

DETROIT        CLOUDY    32  25  75 CALM      30.17S
6HR MIN TEMP:  30; 6HR MAX TEMP:  33;

FLINT          CLOUDY    28  19  69 NE12      30.19R WCI  18
6HR MIN TEMP:  28; 6HR MAX TEMP:  33;

GROSSE ILE     CLOUDY    30  27  86 CALM      30.15F
HILLSDALE      LGT SNOW  30  29  99 CALM      30.14S
6HR MIN TEMP:  29; 6HR MAX TEMP:  32;

HOWELL         CLOUDY    28  24  84 N5        30.16R WCI  23
6HR MIN TEMP:  28; 6HR MAX TEMP:  32;


CITY           SKY/WX    TMP DP  RH WIND       PRES   REMARKS
JACKSON        LGT SNOW  29  25  85 CALM      30.15S FOG
6HR MIN TEMP:  29; 6HR MAX TEMP:  31; 6HR PCP:  0.02;

LAMBERTVILLE   LGT SNOW  32  30  93 SW3       30.17S
LANSING        CLOUDY    27  22  81 NE14      30.18R WCI  16
6HR MIN TEMP:  27; 6HR MAX TEMP:  32;

LAPEER         CLOUDY    26  19  75 NE5       30.18S WCI  21
MASON          CLOUDY    30  24  79 NE7       30.16R WCI  23
MONROE         CLOUDY    30  27  86 CALM      30.15S
MT. CLEMENS    CLOUDY    30  26  83 N5        30.16S WCI  25
6HR MIN TEMP:  29; 6HR MAX TEMP:  33;

PONTIAC        CLOUDY    29  25  85 N8        30.15S WCI  21
6HR MIN TEMP:  29; 6HR MAX TEMP:  32;

PORT HOPE        N/A     22  14  71 N9G18     30.20S WCI  12
6HR MIN TEMP:  22; 6HR MAX TEMP:  29;

PORT HURON     CLOUDY    28  25  86 N7        30.19S WCI  21
TRI CITIES     CLOUDY    26  17  68 N14       30.21S WCI  14
6HR MIN TEMP:  26; 6HR MAX TEMP:  32;

TROY           CLOUDY    33  26  76 CALM      30.18S
SAGINAW HB     CLOUDY    27  21  80 N12       30.20S WCI  16
$$
MIZ043>046-050>051-056>058-064>065-071>073-077>080-010700-
SOUTHWEST LOWER MICHIGAN

CITY           SKY/WX    TMP DP  RH WIND       PRES   REMARKS
BATTLE CREEK   LGT SNOW  31  27  85 CALM      30.17R VSB 3/4
6HR MIN TEMP:  30; 6HR MAX TEMP:  32; 6HR PCP:  0.02;

BENTON HARBOR  LGT SNOW  29  29 100 CALM      30.17S VSB 3/4
6HR MIN TEMP:  29; 6HR MAX TEMP:  32; 6HR PCP:  0.05;

BIG RAPIDS     CLOUDY    22  15  74 N8        30.20R WCI  12
6HR MIN TEMP:  22; 6HR MAX TEMP:  29;

COLDWATER      LGT SNOW  29  29  97 CALM      30.16S
6HR MIN TEMP:  29; 6HR MAX TEMP:  32;

FREMONT        CLOUDY    25  19  76 NE9       30.20R WCI  16
HOLLAND        LGT SNOW  30  24  78 NE5       30.19R WCI  25
6HR MIN TEMP:  30; 6HR MAX TEMP:  32; 6HR PCP: TRACE;

GRAND RAPIDS   CLOUDY    28  23  81 NE13      30.18R WCI  17
6HR MIN TEMP:  28; 6HR MAX TEMP:  31; 6HR PCP: TRACE;

IONIA          CLOUDY    28  22  78 NE10      30.17S WCI  19
KALAMAZOO      LGT SNOW  30  27  88 CALM      30.17S VSB 3/4
6HR MIN TEMP:  28; 6HR MAX TEMP:  32; 6HR PCP:  0.04;

LUDINGTON      CLOUDY    22  12  65 NE8       30.25R WCI  13
6HR MIN TEMP:  22; 6HR MAX TEMP:  31;

MARSHALL       LGT SNOW  28  27  94 CALM      30.16R
MOUNT PLEASANT CLOUDY    24  17  72 N10       30.20S WCI  14
6HR MIN TEMP:  24; 6HR MAX TEMP:  30;

MUSKEGON       CLOUDY    29  21  72 NE7       30.20S WCI  22
6HR MIN TEMP:  29; 6HR MAX TEMP:  31;

SOUTH HAVEN    LGT SNOW  30  28  93 NE5       30.17F WCI  25
$$
MIZ016>042-010700-
NORTHERN LOWER MICHIGAN

CITY           SKY/WX    TMP DP  RH WIND       PRES   REMARKS
ALPENA         LGT SNOW  14  10  84 N16       30.27S FOG     WCI  -2
6HR MIN TEMP:  14; 6HR MAX TEMP:  24; 6HR PCP: TRACE;

BEAVER ISLAND  LGT SNOW  13   9  83 CALM      30.30S
6HR MIN TEMP:  13; 6HR MAX TEMP:  19;

BELLAIRE       MOCLDY    15   6  66 N3        30.27F
6HR MIN TEMP:  15; 6HR MAX TEMP:  24;

CADILLAC       CLOUDY    15   8  75 NE9       30.19S WCI   3
CHARLEVOIX     MOCLDY    15   8  75 NE9       30.30F WCI   3
6HR MIN TEMP:  15; 6HR MAX TEMP:  21;

FRANKFORT      FLURRIES  19  13  77 E7        30.27R WCI  10
GAYLORD        CLOUDY    11   5  77 VRB6      30.20F WCI   1
6HR MIN TEMP:  11; 6HR MAX TEMP:  20; 6HR PCP: TRACE;

GRAYLING       MOCLDY    13   6  73 CALM      30.23S
6HR MIN TEMP:  13; 6HR MAX TEMP:  24;

HARBOR SPRINGS CLOUDY    12   3  66 NE10      30.28F WCI  -1
HOUGHTON LAKE  MOCLDY    15   5  64 N9        30.22R WCI   3
6HR MIN TEMP:  15; 6HR MAX TEMP:  24; 6HR PCP: TRACE;

MANISTEE       CLOUDY    19   9  63 NE8       30.26R WCI   9
OSCODA         MOCLDY    17   9  70 NW8       30.23F WCI   7
PELLSTON       MOCLDY    10   3  73 N9        30.30S WCI  -3
6HR MIN TEMP:  10; 6HR MAX TEMP:  20; 6HR PCP: TRACE;

TRAVERSE CITY  CLOUDY    18   8  65 NE12      30.26S WCI   5
6HR MIN TEMP:  18; 6HR MAX TEMP:  26; 6HR PCP: TRACE;

$$
MIZ007>008-015-010700-
EASTERN UPPER MICHIGAN

CITY           SKY/WX    TMP DP  RH WIND       PRES   REMARKS
KINROSS        MOCLDY     1  -2  85 N5        30.32R WCI  -8
6HR MIN TEMP:   1; 6HR MAX TEMP:  16;

MACKINAC ISLAN MOCLDY     8   1  71 N12       30.30S WCI  -7
6HR MIN TEMP:   8; 6HR MAX TEMP:  19;

NEWBERRY       CLOUDY     7   3  84 N9        30.31R WCI  -7
6HR MIN TEMP:   7; 6HR MAX TEMP:  15;

S. S. MARIE    PTCLDY     1  -7  68 N8        30.33R WCI -13
6HR MIN TEMP:   1; 6HR MAX TEMP:  14;

MUNISING         N/A     14   6  70 N18       30.33R WCI  -3
6HR MIN TEMP:  14; 6HR MAX TEMP:  17; 6HR PCP:  0.01;

$$
MIZ004>006-011>014-085-010700-
CENTRAL UPPER MICHIGAN

CITY           SKY/WX    TMP DP  RH WIND       PRES   REMARKS
MANISTIQUE     CLOUDY    12   7  81 N7        30.30S WCI   2
ESCANABA       MOCLDY    10   3  72 NW5       30.32R WCI   2
6HR MIN TEMP:  10; 6HR MAX TEMP:  18;

MENOMINEE      MOCLDY    12   1  62 N8        30.31R WCI   1
6HR MIN TEMP:  12; 6HR MAX TEMP:  25;

SAWYER-GWINN   LGT SNOW  11   6  80 NE12      30.27S WCI  -3
$$
MIZ001>003-009>011-084-010700-
WESTERN UPPER MICHIGAN

CITY           SKY/WX    TMP DP  RH WIND       PRES   REMARKS
IRON MOUNTAIN  MOCLDY     7  -1  70 NW6       30.28S WCI  -3
6HR MIN TEMP:   6; 6HR MAX TEMP:  16;

HOUGHTON       MOCLDY     2  -3  80 N7        30.35R WCI -11
6HR MIN TEMP:   2; 6HR MAX TEMP:   9; 6HR PCP: TRACE;

COPPER HARBOR    N/A     10   4  76 E10G23    30.40R WCI  -4
6HR MIN TEMP:  10; 6HR MAX TEMP:  12;

IRONWOOD       CLOUDY     9   3  78 E17       30.30R WCI -10
6HR MIN TEMP:   9; 6HR MAX TEMP:  16;

$$

ABBREVIATIONS USED IN REMARKS
   TC - TEMPERATURE IN CELSIUS
  WCI - WIND CHILL INDEX
   HX - HEAT INDEX
  VSB - VISIBILITY




USA.gov is the U.S. government's official web portal to all federal, state and local government web resources and services.